Tracking 29892 objects as of 21-Nov-2024
HD Live streaming from Space Station
objects crossing your sky now

STARLINK-11124

Track STARLINK-11124 now!
10-day predictions
STARLINK-11124 is classified as:


NORAD ID: 59952
Int'l Code: 2024-107H
Perigee: 366.1 km
Apogee: 367.7 km
Inclination: 53.2 °
Period: 91.7 minutes
Semi major axis: 6737 km
RCS: Unknown
Launch date: June 5, 2024
Source: United States (US)
Launch site: AIR FORCE EASTERN TEST RANGE (AFETR)
Your satellite tracking list
Your tracking list is empty




NASA's NSSDC Master Catalog

Two Line Element Set (TLE):
1 59952U 24107H   24325.46819993  .00000936  00000-0  12584-4 0  9991
2 59952  53.1584  69.0387 0001203 101.3555 258.7598 15.69706897 27738
Source of the keplerian elements: AFSPC